Overview Statistics Trail Chart Weather Telemetry Raw packets
 

This is the latest recevied weather packets stored in our database for station/object K6CED. If no packets are shown the sender has not sent any weather packets the latest 10 day(s).

<< 31 32 33 34 35 36 37 >>
Time Temp. Humidity Pressure Rain* Wind** Luminosity Snow
1788457454 23.89° C 54% 1017.2 hPa 0 mm - 713 W/m² -
1788457149 23.33° C 59% 1017.4 hPa 0 mm - 694 W/m² -
1788456844 23.33° C 59% 1017.3 hPa 0 mm - 675 W/m² -
1788456540 22.78° C 59% 1017.6 hPa 0 mm - 659 W/m² -
1788456240 22.78° C 60% 1017.5 hPa 0 mm - 639 W/m² -
1788455935 22.78° C 60% 1017.5 hPa 0 mm - 630 W/m² -
1788455630 22.78° C 61% 1017.4 hPa 0 mm - 610 W/m² -
1788455329 21.67° C 63% 1017.4 hPa 0 mm - 595 W/m² -
1788455024 21.67° C 64% 1017.5 hPa 0 mm - 578 W/m² -
1788454722 21.11° C 63% 1017.3 hPa 0 mm - 561 W/m² -
1788454417 21.11° C 64% 1017.6 hPa 0 mm - 546 W/m² -
1788454112 21.67° C 63% 1017.6 hPa 0 mm - 533 W/m² -
1788453807 21.67° C 63% 1017.4 hPa 0 mm - 519 W/m² -
1788453506 21.11° C 65% 1017.6 hPa 0 mm - 510 W/m² -
1788453203 20.56° C 67% 1017.7 hPa 0 mm - 503 W/m² -
1788452899 20.56° C 67% 1017.5 hPa 0 mm - 497 W/m² -
1788452595 20.56° C 68% 1017.6 hPa 0 mm - 491 W/m² -
1788452291 20.56° C 68% 1017.7 hPa 0 mm - 483 W/m² -
1788451986 20° C 69% 1017.5 hPa 0 mm - 476 W/m² -
1788451682 20° C 70% 1017.8 hPa 0 mm - 460 W/m² -
1788451381 20° C 68% 1017.7 hPa 0 mm - 443 W/m² -
1788451079 20° C 69% 1017.8 hPa 0 mm - 423 W/m² -
1788450774 19.44° C 69% 1017.6 hPa 0 mm - 401 W/m² -
1788450470 19.44° C 67% 1017.9 hPa 0 mm - 177 W/m² -
1788450166 19.44° C 63% 1017.8 hPa 0 mm - 361 W/m² -

* Rain latest hour (hover to see other rain measurements)
** Current wind speed in m/s (hover to see current wind gust speed)